Total_Precipitation_Accumulation
0.03 0.04 0.04 0.05 0.03 0.01 0.00 0.00 0.00 0.00 0.00 0.00 0.00 0.00 0.00 0.00 0.00 0.00 0.00 0.00 0.01 0.03 0.05 0.11 0.15 0.16 0.18 0.19 0.17 0.14 0.15 0.14 0.14 0.14 0.14 0.16 0.18 0.21 0.24 0.25 0.26 0.26 0.31 0.33 0.31 0.33 0.40 0.45 0.51
0.04 0.04 0.05 0.05 0.02 0.00 0.00 0.00 0.00 0.00 0.00 0.00 0.00 0.00 0.00 0.00 0.00 0.00 0.00 0.00 0.00 0.01 0.02 0.06 0.13 0.16 0.18 0.18 0.17 0.14 0.14 0.12 0.12 0.13 0.12 0.14 0.17 0.21 0.24 0.25 0.26 0.28 0.34 0.35 0.37 0.39 0.42 0.46 0.48
0.07 0.06 0.06 0.04 0.02 0.00 0.00 0.00 0.00 0.00 0.00 0.00 0.00 0.00 0.00 0.00 0.00 0.00 0.00 0.00 0.00 0.00 0.01 0.05 0.12 0.16 0.18 0.21 0.19 0.15 0.13 0.13 0.12 0.13 0.14 0.15 0.15 0.17 0.20 0.23 0.25 0.28 0.32 0.30 0.34 0.37 0.35 0.37 0.38
0.09 0.09 0.08 0.04 0.01 0.00 0.00 0.00 0.00 0.00 0.00 0.00 0.00 0.00 0.00 0.00 0.00 0.00 0.00 0.00 0.00 0.00 0.01 0.04 0.11 0.16 0.19 0.22 0.22 0.16 0.14 0.13 0.13 0.14 0.15 0.15 0.15 0.15 0.15 0.16 0.17 0.21 0.25 0.26 0.29 0.32 0.32 0.36 0.37
0.10 0.10 0.09 0.04 0.01 0.00 0.00 0.00 0.00 0.00 0.00 0.00 0.00 0.00 0.00 0.00 0.00 0.00 0.00 0.00 0.00 0.01 0.02 0.04 0.12 0.17 0.19 0.22 0.23 0.19 0.16 0.14 0.15 0.16 0.18 0.17 0.17 0.16 0.14 0.13 0.12 0.12 0.14 0.19 0.24 0.28 0.32 0.38 0.37
0.13 0.11 0.06 0.02 0.01 0.00 0.00 0.00 0.00 0.00 0.00 0.00 0.00 0.00 0.00 0.00 0.00 0.00 0.00 0.00 0.00 0.01 0.02 0.05 0.14 0.18 0.19 0.22 0.25 0.21 0.18 0.17 0.16 0.16 0.17 0.18 0.18 0.18 0.17 0.15 0.13 0.13 0.12 0.13 0.16 0.22 0.34 0.41 0.35
0.14 0.10 0.05 0.01 0.00 0.00 0.00 0.00 0.00 0.00 0.00 0.00 0.00 0.00 0.00 0.00 0.00 0.00 0.00 0.00 0.01 0.01 0.02 0.06 0.12 0.16 0.20 0.25 0.29 0.25 0.22 0.21 0.19 0.17 0.17 0.17 0.16 0.17 0.19 0.18 0.15 0.14 0.14 0.13 0.12 0.15 0.25 0.33 0.34
0.14 0.13 0.06 0.02 0.01 0.00 0.00 0.00 0.00 0.00 0.00 0.00 0.00 0.00 0.00 0.00 0.00 0.00 0.01 0.01 0.01 0.02 0.04 0.06 0.10 0.12 0.16 0.21 0.24 0.26 0.24 0.24 0.23 0.19 0.15 0.13 0.14 0.15 0.14 0.12 0.12 0.13 0.13 0.13 0.12 0.12 0.16 0.21 0.25
0.20 0.21 0.10 0.03 0.02 0.01 0.00 0.00 0.00 0.00 0.00 0.00 0.00 0.00 0.00 0.00 0.00 0.01 0.01 0.03 0.03 0.03 0.05 0.06 0.10 0.12 0.16 0.17 0.18 0.22 0.23 0.23 0.21 0.17 0.13 0.13 0.12 0.11 0.10 0.08 0.08 0.10 0.11 0.11 0.13 0.13 0.12 0.12 0.11
0.30 0.23 0.10 0.03 0.02 0.02 0.02 0.01 0.01 0.01 0.01 0.00 0.00 0.00 0.00 0.00 0.00 0.01 0.02 0.04 0.03 0.04 0.05 0.07 0.10 0.12 0.15 0.15 0.16 0.18 0.18 0.17 0.15 0.12 0.11 0.12 0.12 0.10 0.10 0.09 0.08 0.09 0.09 0.10 0.13 0.13 0.10 0.09 0.08
0.28 0.21 0.09 0.04 0.04 0.06 0.05 0.03 0.02 0.02 0.02 0.01 0.01 0.00 0.00 0.01 0.01 0.01 0.02 0.04 0.04 0.03 0.05 0.06 0.09 0.12 0.13 0.14 0.14 0.15 0.16 0.16 0.14 0.12 0.10 0.12 0.14 0.14 0.12 0.10 0.09 0.07 0.07 0.09 0.11 0.13 0.12 0.15 0.20
0.27 0.18 0.11 0.07 0.05 0.09 0.09 0.06 0.04 0.03 0.02 0.01 0.01 0.01 0.01 0.01 0.01 0.01 0.01 0.03 0.06 0.05 0.05 0.06 0.08 0.11 0.12 0.13 0.12 0.12 0.13 0.12 0.11 0.11 0.10 0.11 0.12 0.11 0.09 0.09 0.08 0.07 0.07 0.07 0.09 0.10 0.12 0.13 0.16
0.25 0.16 0.12 0.11 0.09 0.09 0.11 0.10 0.07 0.04 0.02 0.01 0.02 0.02 0.02 0.02 0.02 0.02 0.01 0.03 0.05 0.06 0.05 0.06 0.08 0.10 0.12 0.14 0.13 0.11 0.11 0.11 0.09 0.09 0.09 0.08 0.08 0.08 0.08 0.08 0.06 0.06 0.06 0.06 0.07 0.07 0.08 0.10 0.14
0.24 0.17 0.13 0.14 0.15 0.13 0.13 0.11 0.09 0.05 0.02 0.03 0.04 0.04 0.03 0.03 0.02 0.02 0.02 0.03 0.04 0.06 0.06 0.06 0.08 0.09 0.12 0.13 0.14 0.11 0.10 0.10 0.09 0.08 0.06 0.05 0.05 0.05 0.05 0.05 0.04 0.04 0.03 0.03 0.03 0.04 0.05 0.06 0.09
0.24 0.24 0.19 0.16 0.18 0.19 0.19 0.16 0.07 0.03 0.03 0.05 0.05 0.05 0.05 0.04 0.03 0.02 0.02 0.03 0.04 0.06 0.07 0.07 0.08 0.10 0.12 0.13 0.14 0.14 0.11 0.09 0.08 0.07 0.06 0.04 0.03 0.03 0.03 0.03 0.03 0.03 0.03 0.03 0.03 0.03 0.04 0.05 0.06
0.34 0.39 0.32 0.17 0.15 0.20 0.29 0.23 0.05 0.02 0.05 0.06 0.06 0.06 0.05 0.04 0.04 0.02 0.02 0.03 0.03 0.06 0.08 0.07 0.08 0.10 0.12 0.14 0.15 0.15 0.14 0.12 0.09 0.08 0.07 0.05 0.04 0.04 0.04 0.04 0.04 0.03 0.03 0.06 0.07 0.06 0.07 0.06 0.08
0.50 0.44 0.25 0.14 0.12 0.19 0.27 0.21 0.07 0.04 0.06 0.07 0.05 0.06 0.05 0.05 0.05 0.04 0.03 0.03 0.03 0.05 0.09 0.09 0.09 0.10 0.11 0.15 0.19 0.19 0.17 0.16 0.14 0.10 0.08 0.06 0.06 0.05 0.05 0.06 0.07 0.07 0.08 0.11 0.13 0.11 0.13 0.12 0.11
0.36 0.26 0.17 0.12 0.13 0.17 0.19 0.14 0.09 0.08 0.08 0.07 0.06 0.05 0.06 0.06 0.05 0.05 0.04 0.04 0.04 0.06 0.09 0.11 0.09 0.11 0.13 0.17 0.24 0.25 0.21 0.18 0.19 0.17 0.12 0.08 0.07 0.05 0.05 0.05 0.05 0.08 0.12 0.16 0.18 0.15 0.15 0.16 0.17
0.22 0.22 0.19 0.12 0.12 0.18 0.17 0.12 0.10 0.10 0.09 0.08 0.07 0.06 0.07 0.06 0.06 0.06 0.06 0.06 0.05 0.07 0.10 0.12 0.11 0.13 0.16 0.20 0.22 0.25 0.20 0.16 0.18 0.20 0.16 0.12 0.09 0.07 0.05 0.05 0.05 0.06 0.07 0.09 0.10 0.12 0.12 0.11 0.13
0.30 0.32 0.25 0.15 0.13 0.17 0.18 0.13 0.09 0.09 0.09 0.07 0.06 0.05 0.06 0.07 0.07 0.08 0.07 0.08 0.07 0.08 0.10 0.12 0.11 0.14 0.15 0.17 0.17 0.18 0.19 0.15 0.14 0.18 0.19 0.15 0.11 0.09 0.06 0.05 0.04 0.04 0.03 0.03 0.03 0.04 0.07 0.06 0.07
0.35 0.28 0.22 0.19 0.20 0.22 0.21 0.17 0.07 0.07 0.06 0.06 0.05 0.04 0.04 0.06 0.08 0.09 0.08 0.09 0.08 0.09 0.10 0.11 0.10 0.13 0.16 0.19 0.23 0.24 0.29 0.27 0.20 0.17 0.18 0.16 0.13 0.09 0.07 0.05 0.04 0.03 0.02 0.03 0.03 0.04 0.06 0.06 0.05
0.34 0.18 0.18 0.23 0.36 0.44 0.33 0.31 0.09 0.05 0.06 0.06 0.05 0.05 0.04 0.05 0.07 0.08 0.08 0.09 0.09 0.09 0.10 0.10 0.09 0.13 0.18 0.21 0.25 0.27 0.25 0.26 0.20 0.16 0.16 0.14 0.13 0.10 0.07 0.06 0.05 0.04 0.03 0.03 0.03 0.04 0.05 0.08 0.09
0.25 0.18 0.23 0.32 0.46 0.53 0.38 0.36 0.13 0.04 0.07 0.06 0.04 0.04 0.04 0.04 0.05 0.07 0.09 0.09 0.10 0.11 0.11 0.12 0.10 0.13 0.19 0.22 0.25 0.28 0.25 0.23 0.23 0.21 0.19 0.17 0.14 0.11 0.08 0.06 0.05 0.05 0.04 0.04 0.04 0.04 0.05 0.08 0.12
0.28 0.36 0.45 0.54 0.79 0.88 0.31 0.25 0.14 0.05 0.07 0.06 0.05 0.05 0.04 0.03 0.04 0.06 0.09 0.11 0.12 0.13 0.14 0.14 0.14 0.15 0.19 0.23 0.26 0.28 0.26 0.25 0.27 0.25 0.22 0.20 0.19 0.15 0.11 0.09 0.07 0.05 0.05 0.05 0.05 0.06 0.08 0.09 0.12
0.52 0.79 1.12 1.13 1.16 0.70 0.12 0.11 0.09 0.04 0.03 0.03 0.04 0.06 0.05 0.03 0.04 0.06 0.08 0.12 0.14 0.14 0.15 0.17 0.20 0.18 0.19 0.24 0.24 0.24 0.23 0.24 0.25 0.25 0.23 0.20 0.18 0.18 0.14 0.10 0.09 0.08 0.07 0.07 0.08 0.10 0.12 0.13 0.16
0.50 0.72 0.99 0.87 0.51 0.20 0.08 0.07 0.05 0.01 0.01 0.01 0.02 0.04 0.05 0.05 0.05 0.07 0.07 0.10 0.13 0.13 0.11 0.15 0.20 0.22 0.20 0.21 0.21 0.22 0.23 0.23 0.23 0.23 0.23 0.22 0.18 0.15 0.14 0.11 0.10 0.09 0.09 0.10 0.11 0.13 0.16 0.18 0.20
0.38 0.48 0.49 0.66 0.47 0.26 0.14 0.06 0.03 0.01 0.01 0.01 0.01 0.02 0.04 0.05 0.06 0.09 0.08 0.10 0.14 0.13 0.09 0.10 0.15 0.20 0.22 0.20 0.20 0.21 0.23 0.25 0.23 0.22 0.20 0.20 0.19 0.17 0.16 0.15 0.14 0.14 0.14 0.14 0.16 0.19 0.20 0.22 0.23
0.33 0.42 0.56 0.90 0.79 0.39 0.16 0.08 0.07 0.03 0.02 0.01 0.01 0.02 0.03 0.05 0.06 0.11 0.10 0.10 0.13 0.14 0.08 0.08 0.13 0.17 0.20 0.20 0.21 0.23 0.23 0.23 0.26 0.27 0.24 0.20 0.18 0.17 0.19 0.20 0.19 0.18 0.19 0.21 0.23 0.24 0.24 0.26 0.26
0.37 0.53 0.74 0.83 0.60 0.40 0.22 0.14 0.10 0.06 0.04 0.04 0.02 0.01 0.02 0.03 0.05 0.10 0.11 0.10 0.11 0.13 0.10 0.08 0.10 0.16 0.20 0.21 0.21 0.22 0.25 0.26 0.28 0.31 0.30 0.26 0.22 0.20 0.20 0.21 0.21 0.22 0.23 0.26 0.28 0.28 0.30 0.33 0.33
0.36 0.44 0.57 0.78 0.60 0.32 0.24 0.16 0.08 0.06 0.05 0.04 0.04 0.03 0.02 0.03 0.04 0.06 0.10 0.12 0.11 0.13 0.13 0.11 0.11 0.14 0.19 0.22 0.21 0.23 0.26 0.29 0.32 0.33 0.34 0.33 0.30 0.25 0.24 0.25 0.26 0.25 0.26 0.30 0.33 0.34 0.35 0.40 0.44